This is the latest recevied weather packets stored in our database for station/object EA7RX-4. If no packets are shown the sender has not sent any weather packets the latest 10 day(s).
| Time | Temp. | Humidity | Pressure | Rain* | Wind** | Luminosity | Snow |
|---|---|---|---|---|---|---|---|
| 1787923803 | 21.67° C | 34% | 1020.2 hPa | 0 mm | - | 819 W/m² | - |
| 1787923203 | 21.67° C | 34% | 1020.4 hPa | 0 mm | - | 834 W/m² | - |
| 1787922603 | 21.11° C | 35% | 1020.5 hPa | 0 mm | - | 846 W/m² | - |
| 1787922003 | 20.56° C | 35% | 1020.3 hPa | 0 mm | - | 855 W/m² | - |
| 1787921403 | 21.11° C | 34% | 1020.4 hPa | 0 mm | - | 865 W/m² | - |
| 1787920803 | 20.56° C | 36% | 1020.3 hPa | 0 mm | - | 871 W/m² | - |
| 1787920203 | 20° C | 38% | 1020.4 hPa | 0 mm | - | 874 W/m² | - |
| 1787919603 | 20° C | 38% | 1020.5 hPa | 0 mm | - | 877 W/m² | - |
| 1787919003 | 20° C | 37% | 1020.5 hPa | 0 mm | - | 879 W/m² | - |
| 1787918403 | 20.56° C | 37% | 1020.5 hPa | 0 mm | - | 880 W/m² | - |
| 1787917803 | 20° C | 38% | 1020.7 hPa | 0 mm | - | 876 W/m² | - |
| 1787917203 | 19.44° C | 38% | 1020.6 hPa | 0 mm | - | 871 W/m² | - |
| 1787916603 | 19.44° C | 40% | 1020.9 hPa | 0 mm | - | 865 W/m² | - |
| 1787916003 | 18.89° C | 41% | 1020.7 hPa | 0 mm | - | 852 W/m² | - |
| 1787915403 | 18.33° C | 43% | 1020.9 hPa | 0 mm | - | 838 W/m² | - |
| 1787914803 | 18.33° C | 43% | 1020.5 hPa | 0 mm | - | 827 W/m² | - |
| 1787914203 | 18.33° C | 43% | 1021 hPa | 0 mm | - | 812 W/m² | - |
| 1787913603 | 18.33° C | 46% | 1020.5 hPa | 0 mm | - | 794 W/m² | - |
| 1787913003 | 18.33° C | 48% | 1020.9 hPa | 0 mm | - | 770 W/m² | - |
| 1787912403 | 18.33° C | 47% | 1020.9 hPa | 0 mm | - | 751 W/m² | - |
| 1787911803 | 17.78° C | 49% | 1020.5 hPa | 0 mm | - | 721 W/m² | - |
| 1787911203 | 17.22° C | 47% | 1020.9 hPa | 0 mm | - | 710 W/m² | - |
| 1787910603 | 17.78° C | 51% | 1021 hPa | 0 mm | - | 684 W/m² | - |
| 1787910003 | 16.67° C | 56% | 1020.6 hPa | 0 mm | - | 659 W/m² | - |
| 1787909403 | 16.11° C | 60% | 1020.7 hPa | 0 mm | - | 649 W/m² | - |
* Rain latest hour (hover to see other rain measurements)
** Current wind speed in m/s (hover to see current wind gust speed)